Weather observations for the past three days for
Jackson, Hawkins Field Airport
Imperial (Metric)
Date Time (cdt) Wind (mph) Vis. (mi.) Weather Sky Cond. Temperature (ºF) Relative Humidity Wind Chill (°F) Heat Index (°F) Pressure Precipitation (in)
Air Dwpt 6 hour altimeter (in) sea level (mb) 1 hr 3 hr 6 hr
Max. Min.
22 11:53 W 5 10.00 Fair CLR 84.9 73.9 70% 92 30.05 1016.6
22 10:53 Calm 10.00 Partly Cloudy SCT014 82 73.9 77% 88 30.05 1016.6
22 09:53 Vrbl 3 10.00 Overcast OVC008 78.1 73 85% 81 30.05 1016.6
22 08:53 SW 6 10.00 Overcast OVC005 75.9 73 91% 76 30.05 1016.8
22 07:53 SW 7 7.00 Overcast OVC004 73.9 72 94% 30.04 1016.4
22 06:53 S 6 7.00 Overcast OVC004 73.9 72 73.9 73 94% 30.02 1015.6
22 05:53 SW 3 9.00 Overcast OVC004 73.9 72 94% 30.01 1015.2
22 04:53 W 5 9.00 Overcast OVC004 73.9 72 94% 30 1015.1
22 03:53 S 3 10.00 Overcast OVC004 73 72 96% 30 1015.1
22 02:53 S 5 8.00 Overcast OVC005 73 72 96% 30.01 1015.6
22 01:53 S 5 6.00 Fog/Mist OVC005 73.9 72 94% 30.02 1015.7
22 00:53 S 5 10.00 Mostly Cloudy BKN005 73.9 72 79 73.9 94% 30.03 1015.9
21 23:53 S 5 10.00 Mostly Cloudy SCT006 BKN060 73.9 72 94% 30.03 1016.1
21 22:53 S 5 10.00 Fair CLR 75 73 94% 73 30.01 1015.5
21 21:53 Calm 10.00 Fair CLR 75.9 73 91% 76 30 1015.0
21 20:53 NW 3 10.00 Fair CLR 75.9 73 91% 76 29.98 1014.4
21 19:53 Calm 10.00 Fair CLR 77 73 88% 78 29.99 1014.8
21 18:53 S 3 10.00 Fair CLR 79 73.9 81 75 85% 83 29.99 1014.7 0.27
21 17:53 SE 6 10.00 Overcast OVC060 80.1 75 85% 85 30 1014.9
21 16:53 E 5 10.00 Mostly Cloudy FEW047 SCT070 BKN090 79 75 88% 83 29.98 1014.2
21 15:53 W 8 10.00 Partly Cloudy SCT080 SCT090 77 73 88% 78 30 1014.9 0.27
21 14:53 SE 7 10.00 Overcast BKN060 OVC080 77 73.9 90% 78 30.02 1015.6 0.26
21 13:53 W 13 G 24 7.00 Thunderstorm in Vicinity Light Rain FEW022 BKN032 OVC038 79 72 79% 82 30.01 1015.4 0.01
21 12:53 Calm 10.00 Thunderstorm in Vicinity BKN065 BKN080 BKN095 89.1 72 90 75.9 57% 96 29.99 1014.7
21 11:53 Calm 10.00 Partly Cloudy SCT033 88 73.9 63% 97 30.01 1015.4
21 10:53 Calm 10.00 Mostly Cloudy FEW039 BKN065 86 73.9 67% 94 30.02 1015.7
21 09:53 Calm 10.00 A Few Clouds FEW080 84.9 75 72% 93 30.03 1016.1
21 08:53 SW 5 10.00 Fair CLR 81 75 82% 87 30.05 1016.6
21 07:53 S 3 10.00 Fair CLR 79 75 88% 83 30.04 1016.5
21 06:53 S 3 9.00 Fair CLR 75.9 73.9 80.1 75 94% 75 30.03 1016.1
21 04:53 Calm 10.00 Mostly Cloudy SCT038 BKN065 77 73.9 90% 78 30.02 1015.6
21 03:53 S 3 10.00 Partly Cloudy FEW039 SCT055 77 73.9 90% 78 30.01 1015.4
21 02:53 Calm 10.00 Mostly Cloudy BKN060 BKN080 BKN095 79 73.9 85% 83 30.01 1015.5
21 01:53 Calm 10.00 Overcast BKN038 BKN055 OVC100 80.1 73.9 82% 85 30.03 1015.9
21 00:53 S 3 10.00 Overcast BKN039 BKN047 OVC060 79 75 89.1 78.1 88% 83 30.04 1016.3
20 19:53 Calm 10.00 Fair CLR 86 71.1 61% 92 30 1014.9
20 18:53 Calm 10.00 Fair CLR 89.1 72 90 86 57% 96 29.99 1014.8
20 17:53 Calm 10.00 Fair CLR 89.1 72 57% 96 30 1015.0
20 16:53 NW 6 10.00 Partly Cloudy SCT090 88 73 61% 96 30.02 1015.7
20 15:53 Calm 10.00 Mostly Cloudy SCT060 BKN085 88 72 59% 95 30.03 1016.0
20 14:53 W 6 10.00 Mostly Cloudy SCT035 BKN065 87.1 73 63% 95 30.03 1016.1
20 13:53 Vrbl 3 10.00 Partly Cloudy SCT034 SCT040 88 73 61% 96 30.03 1016.1
20 12:53 N 7 10.00 Mostly Cloudy BKN030 BKN036 87.1 73 87.1 75 63% 95 30.04 1016.3
20 11:53 Vrbl 3 10.00 Mostly Cloudy FEW025 BKN034 84.9 73.9 70% 92 30.05 1016.8
20 10:53 NW 5 10.00 Mostly Cloudy FEW021 BKN030 82.9 73 72% 89 30.06 1017.1
20 09:53 Calm 10.00 Mostly Cloudy FEW010 SCT015 BKN023 81 73.9 79% 86 30.06 1017.0
20 08:53 W 3 10.00 Overcast BKN006 OVC033 77 75 94% 78 30.05 1016.7
20 07:53 Calm 10.00 Overcast SCT007 OVC022 75.9 73.9 94% 75 30.04 1016.5
20 06:53 SW 3 9.00 Overcast BKN006 OVC013 75.9 73.9 75.9 73 94% 75 30.02 1015.7
20 05:53 S 6 6.00 Fog/Mist OVC005 75 73 94% 73 30.01 1015.2
20 04:53 Calm 10.00 Overcast OVC006 75 73 94% 73 30 1014.9
20 03:53 S 3 10.00 Partly Cloudy FEW020 SCT040 SCT070 73 72 96% 29.99 1014.7
20 02:53 S 5 10.00 Overcast FEW033 OVC100 73.9 72 94% 29.99 1014.7
20 01:53 S 6 10.00 Overcast FEW012 OVC100 73.9 73 97% 30.01 1015.2
20 00:53 Calm 10.00 Partly Cloudy SCT100 75 73.9 77 75 96% 73 30.02 1015.7 0.37
19 23:53 Calm 10.00 Overcast BKN020 BKN027 OVC080 75.9 75 97% 75 30.03 1016.1
19 22:53 Calm 10.00 A Few Clouds FEW023 75 73.9 96% 73 30.02 1015.8 0.01
19 21:53 Calm 6.00 Light Rain Fog/Mist FEW024 SCT095 BKN110 75 73.9 96% 73 30.01 1015.5 0.01 0.36
19 20:53 Calm 10.00 Mostly Cloudy FEW027 SCT055 BKN090 75 73 94% 73 30 1015.0 0.01
19 19:53 NE 7 2.00 Thunderstorm in Vicinity Rain Fog/Mist FEW008 BKN039 OVC080 75 73.9 96% 73 29.99 1014.8 0.34
Date Time (cdt) Wind (mph) Vis. (mi.) Weather Sky Cond. Air Dwpt Max. Min. Relative Humidity Wind Chill (°F) Heat Index (°F) altimeter (in) sea level (mb) 1 hr 3 hr 6 hr
6 hour
Temperature (ºF) Pressure Precipitation (in)